Time,TemperatureF,DewpointF,PressureIn,WindDirection,WindDirectionDegrees,WindSpeedMPH,WindSpeedGustMPH,Humidity,HourlyPrecipIn,Conditions,Clouds,dailyrainin,SoftwareType,DateUTC
2013-01-24 00:00:00,24.5,8.9,30.15,NNW,338,1.0,1.0,51,0.00,,,0.00,Wunderground v.1.15,2013-01-24 05:00:00,
2013-01-24 00:05:00,24.4,9.7,30.15,North,7,1.0,1.0,53,0.00,,,0.00,Wunderground v.1.15,2013-01-24 05:05:00,
2013-01-24 00:15:00,24.2,9.5,30.14,North,7,1.0,1.0,53,0.00,,,0.00,Wunderground v.1.15,2013-01-24 05:15:00,
2013-01-24 00:20:00,24.2,11.1,30.14,North,357,1.0,1.0,57,0.00,,,0.00,Wunderground v.1.15,2013-01-24 05:20:00,
2013-01-24 00:25:00,24.4,14.0,30.14,ENE,69,3.0,5.0,64,0.00,,,0.00,Wunderground v.1.15,2013-01-24 05:25:00,
2013-01-24 00:30:00,24.2,15.2,30.13,ENE,67,4.0,6.0,68,0.00,,,0.00,Wunderground v.1.15,2013-01-24 05:30:00,
2013-01-24 00:40:00,23.5,16.1,30.13,East,90,5.0,6.0,73,0.00,,,0.00,Wunderground v.1.15,2013-01-24 05:40:00,
2013-01-24 00:45:00,23.3,16.5,30.13,East,84,5.0,6.0,75,0.00,,,0.00,Wunderground v.1.15,2013-01-24 05:45:00,
2013-01-24 00:50:00,22.9,16.8,30.13,ENE,66,5.0,6.0,77,0.00,,,0.00,Wunderground v.1.15,2013-01-24 05:50:00,
2013-01-24 00:55:00,22.6,17.1,30.13,East,80,6.0,6.0,79,0.00,,,0.00,Wunderground v.1.15,2013-01-24 05:55:00,
2013-01-24 01:00:00,22.4,17.2,30.13,ENE,74,5.0,5.0,80,0.00,,,0.00,Wunderground v.1.15,2013-01-24 06:00:00,
2013-01-24 01:05:00,22.2,17.3,30.13,ENE,73,5.0,5.0,81,0.00,,,0.00,Wunderground v.1.15,2013-01-24 06:05:00,
2013-01-24 01:15:00,22.0,17.6,30.12,ESE,114,5.0,8.0,83,0.00,,,0.00,Wunderground v.1.15,2013-01-24 06:15:00,
2013-01-24 01:20:00,21.8,17.4,30.12,East,86,6.0,6.0,83,0.00,,,0.00,Wunderground v.1.15,2013-01-24 06:20:00,
2013-01-24 01:25:00,21.5,17.1,30.12,ENE,67,6.0,6.0,83,0.00,,,0.00,Wunderground v.1.15,2013-01-24 06:25:00,
2013-01-24 01:30:00,21.5,17.4,30.12,ENE,63,7.0,10.0,84,0.00,,,0.00,Wunderground v.1.15,2013-01-24 06:30:00,
2013-01-24 01:35:00,21.4,17.3,30.12,ENE,76,7.0,10.0,84,0.00,,,0.00,Wunderground v.1.15,2013-01-24 06:35:00,
2013-01-24 01:45:00,21.4,17.6,30.11,East,87,6.0,6.0,85,0.00,,,0.00,Wunderground v.1.15,2013-01-24 06:45:00,
2013-01-24 01:50:00,21.5,17.7,30.11,NE,43,6.0,11.0,85,0.00,,,0.00,Wunderground v.1.15,2013-01-24 06:50:00,
2013-01-24 01:55:00,21.3,17.5,30.11,East,92,7.0,11.0,85,0.00,,,0.00,Wunderground v.1.15,2013-01-24 06:55:00,
2013-01-24 02:00:00,21.2,17.7,30.11,ENE,71,8.0,8.0,86,0.00,,,0.00,Wunderground v.1.15,2013-01-24 07:00:00,
2013-01-24 02:05:00,21.1,17.6,30.11,East,86,8.0,8.0,86,0.00,,,0.00,Wunderground v.1.15,2013-01-24 07:05:00,
2013-01-24 02:10:00,21.1,17.6,30.11,East,81,8.0,9.0,86,0.00,,,0.00,Wunderground v.1.15,2013-01-24 07:10:00,
2013-01-24 02:15:00,21.0,17.7,30.11,ENE,74,7.0,9.0,87,0.00,,,0.00,Wunderground v.1.15,2013-01-24 07:15:00,
2013-01-24 02:25:00,20.8,17.8,30.11,ENE,59,9.0,12.0,88,0.00,,,0.00,Wunderground v.1.15,2013-01-24 07:25:00,
2013-01-24 02:30:00,20.7,17.7,30.10,ENE,77,10.0,11.0,88,0.00,,,0.00,Wunderground v.1.15,2013-01-24 07:30:00,
2013-01-24 02:35:00,20.7,17.7,30.11,NE,34,9.0,11.0,88,0.00,,,0.00,Wunderground v.1.15,2013-01-24 07:35:00,
2013-01-24 02:40:00,20.7,18.0,30.11,ENE,66,9.0,9.0,89,0.00,,,0.00,Wunderground v.1.15,2013-01-24 07:40:00,
2013-01-24 02:45:00,20.9,18.2,30.11,NE,49,9.0,10.0,89,0.00,,,0.00,Wunderground v.1.15,2013-01-24 07:45:00,
2013-01-24 02:55:00,20.8,18.1,30.10,East,97,8.0,9.0,89,0.00,,,0.00,Wunderground v.1.15,2013-01-24 07:55:00,
2013-01-24 03:00:00,20.5,17.5,30.10,ENE,74,8.0,9.0,88,0.00,,,0.00,Wunderground v.1.15,2013-01-24 08:00:00,
2013-01-24 03:05:00,20.3,17.3,30.10,East,82,9.0,9.0,88,0.00,,,0.00,Wunderground v.1.15,2013-01-24 08:05:00,
2013-01-24 03:10:00,20.4,17.7,30.10,East,82,9.0,10.0,89,0.00,,,0.00,Wunderground v.1.15,2013-01-24 08:10:00,
2013-01-24 03:20:00,20.4,17.7,30.10,ENE,63,8.0,8.0,89,0.00,,,0.00,Wunderground v.1.15,2013-01-24 08:20:00,
2013-01-24 03:25:00,20.3,17.6,30.10,East,92,8.0,8.0,89,0.00,,,0.00,Wunderground v.1.15,2013-01-24 08:25:00,
2013-01-24 03:30:00,20.4,17.7,30.10,NE,52,8.0,8.0,89,0.00,,,0.00,Wunderground v.1.15,2013-01-24 08:30:00,
2013-01-24 03:35:00,20.3,17.6,30.10,ENE,65,8.0,8.0,89,0.00,,,0.00,Wunderground v.1.15,2013-01-24 08:35:00,
2013-01-24 03:40:00,20.3,17.6,30.10,ENE,76,7.0,7.0,89,0.00,,,0.00,Wunderground v.1.15,2013-01-24 08:40:00,
2013-01-24 03:45:00,20.4,17.7,30.09,ENE,75,7.0,7.0,89,0.00,,,0.00,Wunderground v.1.15,2013-01-24 08:45:00,
2013-01-24 03:50:00,20.5,17.8,30.10,ENE,77,6.0,9.0,89,0.00,,,0.00,Wunderground v.1.15,2013-01-24 08:50:00,
2013-01-24 03:55:00,20.7,18.0,30.09,NE,53,6.0,9.0,89,0.00,,,0.00,Wunderground v.1.15,2013-01-24 08:55:00,
2013-01-24 04:05:00,20.6,17.9,30.09,NE,43,5.0,6.0,89,0.00,,,0.00,Wunderground v.1.15,2013-01-24 09:05:00,
2013-01-24 04:10:00,20.7,18.0,30.09,ENE,72,5.0,5.0,89,0.00,,,0.00,Wunderground v.1.15,2013-01-24 09:10:00,
2013-01-24 04:15:00,20.6,17.9,30.09,ENE,67,5.0,6.0,89,0.00,,,0.00,Wunderground v.1.15,2013-01-24 09:15:00,
2013-01-24 04:20:00,20.7,18.0,30.09,ENE,76,5.0,5.0,89,0.00,,,0.00,Wunderground v.1.15,2013-01-24 09:20:00,
2013-01-24 04:30:00,20.6,17.6,30.10,ENE,59,4.0,5.0,88,0.00,,,0.00,Wunderground v.1.15,2013-01-24 09:30:00,
2013-01-24 04:35:00,20.7,17.7,30.10,NNE,13,4.0,5.0,88,0.00,,,0.00,Wunderground v.1.15,2013-01-24 09:35:00,
2013-01-24 04:40:00,20.8,17.8,30.10,East,100,3.0,5.0,88,0.00,,,0.00,Wunderground v.1.15,2013-01-24 09:40:00,
2013-01-24 04:45:00,20.8,17.8,30.10,ESE,117,3.0,5.0,88,0.00,,,0.00,Wunderground v.1.15,2013-01-24 09:45:00,
2013-01-24 04:50:00,20.8,17.8,30.11,ENE,68,3.0,4.0,88,0.00,,,0.00,Wunderground v.1.15,2013-01-24 09:50:00,
2013-01-24 04:55:00,20.9,17.9,30.11,ENE,72,3.0,7.0,88,0.00,,,0.00,Wunderground v.1.15,2013-01-24 09:55:00,
2013-01-24 05:05:00,20.7,17.7,30.11,East,80,6.0,6.0,88,0.00,,,0.00,Wunderground v.1.15,2013-01-24 10:05:00,
2013-01-24 05:10:00,20.7,17.7,30.12,East,80,5.0,8.0,88,0.00,,,0.00,Wunderground v.1.15,2013-01-24 10:10:00,
2013-01-24 05:15:00,20.7,17.7,30.12,ENE,74,4.0,8.0,88,0.00,,,0.00,Wunderground v.1.15,2013-01-24 10:15:00,
2013-01-24 05:20:00,20.8,17.8,30.12,NE,56,5.0,7.0,88,0.00,,,0.00,Wunderground v.1.15,2013-01-24 10:20:00,
2013-01-24 05:25:00,20.8,17.8,30.12,NNW,346,5.0,7.0,88,0.00,,,0.00,Wunderground v.1.15,2013-01-24 10:25:00,
2013-01-24 05:35:00,20.7,17.7,30.13,North,8,3.0,4.0,88,0.00,,,0.00,Wunderground v.1.15,2013-01-24 10:35:00,
2013-01-24 05:45:00,20.5,17.5,30.13,East,82,3.0,4.0,88,0.00,,,0.00,Wunderground v.1.15,2013-01-24 10:45:00,
2013-01-24 05:50:00,20.2,17.2,30.14,ESE,104,3.0,6.0,88,0.00,,,0.00,Wunderground v.1.15,2013-01-24 10:50:00,
2013-01-24 05:55:00,20.4,17.4,30.14,ENE,57,4.0,6.0,88,0.00,,,0.00,Wunderground v.1.15,2013-01-24 10:55:00,
2013-01-24 06:00:00,20.4,17.4,30.15,ESE,105,4.0,4.0,88,0.00,,,0.00,Wunderground v.1.15,2013-01-24 11:00:00,
2013-01-24 06:10:00,20.2,17.0,30.15,ENE,67,4.0,4.0,87,0.00,,,0.00,Wunderground v.1.15,2013-01-24 11:10:00,
2013-01-24 06:15:00,20.4,17.1,30.15,ENE,63,4.0,7.0,87,0.00,,,0.00,Wunderground v.1.15,2013-01-24 11:15:00,
2013-01-24 06:20:00,20.5,17.2,30.15,West,274,4.0,4.0,87,0.00,,,0.00,Wunderground v.1.15,2013-01-24 11:20:00,
2013-01-24 06:25:00,20.7,17.7,30.16,North,351,3.0,4.0,88,0.00,,,0.00,Wunderground v.1.15,2013-01-24 11:25:00,
2013-01-24 06:30:00,20.7,17.4,30.16,NNE,22,3.0,5.0,87,0.00,,,0.00,Wunderground v.1.15,2013-01-24 11:30:00,
2013-01-24 06:40:00,20.4,17.4,30.17,NNW,346,4.0,4.0,88,0.00,,,0.00,Wunderground v.1.15,2013-01-24 11:40:00,
2013-01-24 06:45:00,20.4,17.7,30.17,North,3,5.0,5.0,89,0.00,,,0.00,Wunderground v.1.15,2013-01-24 11:45:00,
2013-01-24 06:55:00,20.0,17.3,30.18,NNW,344,6.0,10.0,89,0.00,,,0.00,Wunderground v.1.15,2013-01-24 11:55:00,
2013-01-24 07:00:00,19.9,17.2,30.18,North,11,7.0,7.0,89,0.00,,,0.00,Wunderground v.1.15,2013-01-24 12:00:00,
2013-01-24 07:05:00,19.7,17.0,30.19,NNW,336,7.0,7.0,89,0.00,,,0.00,Wunderground v.1.15,2013-01-24 12:05:00,
2013-01-24 07:10:00,19.4,16.7,30.19,NNW,340,7.0,7.0,89,0.00,,,0.00,Wunderground v.1.15,2013-01-24 12:10:00,
2013-01-24 07:20:00,19.0,16.3,30.20,NNW,336,7.0,7.0,89,0.00,,,0.00,Wunderground v.1.15,2013-01-24 12:20:00,
2013-01-24 07:30:00,18.8,16.1,30.21,NE,42,6.0,6.0,89,0.00,,,0.00,Wunderground v.1.15,2013-01-24 12:30:00,
2013-01-24 07:35:00,18.7,16.0,30.21,North,349,6.0,6.0,89,0.00,,,0.00,Wunderground v.1.15,2013-01-24 12:35:00,
2013-01-24 07:40:00,18.5,15.5,30.21,WNW,296,6.0,6.0,88,0.00,,,0.00,Wunderground v.1.15,2013-01-24 12:40:00,
2013-01-24 07:45:00,18.3,15.3,30.22,NW,325,6.0,6.0,88,0.00,,,0.00,Wunderground v.1.15,2013-01-24 12:45:00,
2013-01-24 07:50:00,18.2,15.2,30.22,North,9,6.0,6.0,88,0.00,,,0.00,Wunderground v.1.15,2013-01-24 12:50:00,
2013-01-24 08:00:00,18.3,14.8,30.22,NNW,331,6.0,6.0,86,0.00,,,0.00,Wunderground v.1.15,2013-01-24 13:00:00,
2013-01-24 08:05:00,18.2,14.4,30.23,NNW,339,5.0,6.0,85,0.00,,,0.00,Wunderground v.1.15,2013-01-24 13:05:00,
2013-01-24 08:10:00,18.3,14.0,30.23,NNW,332,6.0,6.0,83,0.00,,,0.00,Wunderground v.1.15,2013-01-24 13:10:00,
2013-01-24 08:15:00,18.3,13.7,30.23,NNW,332,6.0,6.0,82,0.00,,,0.00,Wunderground v.1.15,2013-01-24 13:15:00,
2013-01-24 08:20:00,18.3,13.2,30.23,NNW,338,6.0,6.0,80,0.00,,,0.00,Wunderground v.1.15,2013-01-24 13:20:00,
2013-01-24 08:25:00,18.4,13.0,30.24,NW,322,7.0,7.0,79,0.00,,,0.00,Wunderground v.1.15,2013-01-24 13:25:00,
2013-01-24 08:35:00,18.8,13.1,30.25,NW,322,7.0,9.0,78,0.00,,,0.00,Wunderground v.1.15,2013-01-24 13:35:00,
2013-01-24 08:40:00,18.8,12.8,30.26,NW,304,7.0,7.0,77,0.00,,,0.00,Wunderground v.1.15,2013-01-24 13:40:00,
2013-01-24 08:45:00,18.9,12.9,30.26,NNW,332,7.0,7.0,77,0.00,,,0.00,Wunderground v.1.15,2013-01-24 13:45:00,
2013-01-24 08:50:00,19.1,13.1,30.26,NNW,333,7.0,10.0,77,0.00,,,0.00,Wunderground v.1.15,2013-01-24 13:50:00,
2013-01-24 08:55:00,19.2,12.9,30.26,North,5,8.0,10.0,76,0.00,,,0.00,Wunderground v.1.15,2013-01-24 13:55:00,
2013-01-24 09:00:00,19.3,12.7,30.27,NW,313,8.0,9.0,75,0.00,,,0.00,Wunderground v.1.15,2013-01-24 14:00:00,
2013-01-24 09:10:00,19.6,13.0,30.27,NNW,343,8.0,8.0,75,0.00,,,0.00,Wunderground v.1.15,2013-01-24 14:10:00,
2013-01-24 09:15:00,19.8,12.8,30.28,NNW,330,7.0,8.0,74,0.00,,,0.00,Wunderground v.1.15,2013-01-24 14:15:00,
2013-01-24 09:20:00,20.0,13.0,30.28,North,5,7.0,12.0,74,0.00,,,0.00,Wunderground v.1.15,2013-01-24 14:20:00,
2013-01-24 09:25:00,19.9,12.9,30.29,NW,321,7.0,12.0,74,0.00,,,0.00,Wunderground v.1.15,2013-01-24 14:25:00,
2013-01-24 09:30:00,20.2,13.2,30.29,North,358,7.0,9.0,74,0.00,,,0.00,Wunderground v.1.15,2013-01-24 14:30:00,
2013-01-24 09:35:00,20.3,13.3,30.29,North,351,7.0,9.0,74,0.00,,,0.00,Wunderground v.1.15,2013-01-24 14:35:00,
2013-01-24 09:45:00,20.3,13.3,30.29,NW,320,6.0,7.0,74,0.00,,,0.00,Wunderground v.1.15,2013-01-24 14:45:00,
2013-01-24 09:50:00,20.5,13.5,30.30,North,353,5.0,5.0,74,0.00,,,0.00,Wunderground v.1.15,2013-01-24 14:50:00,
2013-01-24 09:55:00,20.8,13.5,30.30,NW,315,5.0,5.0,73,0.00,,,0.00,Wunderground v.1.15,2013-01-24 14:55:00,
2013-01-24 10:00:00,21.0,13.4,30.30,NNW,334,4.0,4.0,72,0.00,,,0.00,Wunderground v.1.15,2013-01-24 15:00:00,
2013-01-24 10:10:00,21.5,13.2,30.31,NW,324,6.0,6.0,70,0.00,,,0.00,Wunderground v.1.15,2013-01-24 15:10:00,
2013-01-24 10:15:00,21.6,13.0,30.31,NW,309,4.0,7.0,69,0.00,,,0.00,Wunderground v.1.15,2013-01-24 15:15:00,
2013-01-24 10:20:00,21.7,12.4,30.31,NNW,338,5.0,6.0,67,0.00,,,0.00,Wunderground v.1.15,2013-01-24 15:20:00,
2013-01-24 10:25:00,21.8,12.2,30.31,NNW,330,6.0,6.0,66,0.00,,,0.00,Wunderground v.1.15,2013-01-24 15:25:00,
2013-01-24 10:30:00,22.1,12.8,30.31,North,353,6.0,7.0,67,0.00,,,0.00,Wunderground v.1.15,2013-01-24 15:30:00,
2013-01-24 10:35:00,22.0,12.0,30.31,NNW,345,6.0,8.0,65,0.00,,,0.00,Wunderground v.1.15,2013-01-24 15:35:00,
2013-01-24 10:40:00,22.5,12.8,30.32,North,355,5.0,5.0,66,0.00,,,0.00,Wunderground v.1.15,2013-01-24 15:40:00,
2013-01-24 10:50:00,22.6,12.2,30.32,NW,310,5.0,5.0,64,0.00,,,0.00,Wunderground v.1.15,2013-01-24 15:50:00,
2013-01-24 10:55:00,22.9,12.9,30.32,NW,319,5.0,5.0,65,0.00,,,0.00,Wunderground v.1.15,2013-01-24 15:55:00,
2013-01-24 11:00:00,23.0,12.6,30.32,NNW,344,5.0,5.0,64,0.00,,,0.00,Wunderground v.1.15,2013-01-24 16:00:00,
2013-01-24 11:05:00,23.3,12.9,30.32,WNW,294,5.0,6.0,64,0.00,,,0.00,Wunderground v.1.15,2013-01-24 16:05:00,
2013-01-24 11:10:00,23.4,13.0,30.32,NW,315,4.0,5.0,64,0.00,,,0.00,Wunderground v.1.15,2013-01-24 16:10:00,
2013-01-24 11:15:00,23.3,12.2,30.32,NW,324,6.0,6.0,62,0.00,,,0.00,Wunderground v.1.15,2013-01-24 16:15:00,
2013-01-24 11:25:00,23.3,12.2,30.33,NNW,346,7.0,7.0,62,0.00,,,0.00,Wunderground v.1.15,2013-01-24 16:25:00,
2013-01-24 11:45:00,23.6,12.1,30.33,NNW,340,6.0,6.0,61,0.00,,,0.00,Wunderground v.1.15,2013-01-24 16:45:00,
2013-01-24 11:50:00,23.6,12.1,30.33,North,1,7.0,7.0,61,0.00,,,0.00,Wunderground v.1.15,2013-01-24 16:50:00,
2013-01-24 11:55:00,24.2,12.7,30.33,NNW,330,6.0,7.0,61,0.00,,,0.00,Wunderground v.1.15,2013-01-24 16:55:00,
2013-01-24 12:05:00,24.8,12.5,30.33,NW,319,6.0,6.0,59,0.00,,,0.00,Wunderground v.1.15,2013-01-24 17:05:00,
2013-01-24 12:10:00,24.9,12.6,30.33,North,351,6.0,10.0,59,0.00,,,0.00,Wunderground v.1.15,2013-01-24 17:10:00,
2013-01-24 12:15:00,24.9,12.2,30.33,NW,326,6.0,10.0,58,0.00,,,0.00,Wunderground v.1.15,2013-01-24 17:15:00,
2013-01-24 12:20:00,24.7,12.0,30.33,North,350,7.0,9.0,58,0.00,,,0.00,Wunderground v.1.15,2013-01-24 17:20:00,
2013-01-24 12:25:00,25.2,12.1,30.33,NNW,342,8.0,10.0,57,0.00,,,0.00,Wunderground v.1.15,2013-01-24 17:25:00,
2013-01-24 12:30:00,25.2,11.7,30.33,NNW,338,7.0,10.0,56,0.00,,,0.00,Wunderground v.1.15,2013-01-24 17:30:00,
2013-01-24 12:40:00,25.9,12.3,30.33,NNW,344,6.0,6.0,56,0.00,,,0.00,Wunderground v.1.15,2013-01-24 17:40:00,
2013-01-24 12:45:00,25.6,11.7,30.34,NNW,342,7.0,15.0,55,0.00,,,0.00,Wunderground v.1.15,2013-01-24 17:45:00,
2013-01-24 12:50:00,25.2,11.3,30.34,NNW,346,8.0,8.0,55,0.00,,,0.00,Wunderground v.1.15,2013-01-24 17:50:00,
2013-01-24 12:55:00,25.1,11.6,30.33,NNW,335,8.0,8.0,56,0.00,,,0.00,Wunderground v.1.15,2013-01-24 17:55:00,
2013-01-24 13:00:00,25.1,11.6,30.34,NW,324,8.0,8.0,56,0.00,,,0.00,Wunderground v.1.15,2013-01-24 18:00:00,
2013-01-24 13:05:00,25.5,11.6,30.34,NNW,330,9.0,9.0,55,0.00,,,0.00,Wunderground v.1.15,2013-01-24 18:05:00,
2013-01-24 13:15:00,25.2,12.1,30.34,NNW,344,7.0,9.0,57,0.00,,,0.00,Wunderground v.1.15,2013-01-24 18:15:00,
2013-01-24 13:20:00,25.3,12.6,30.34,WNW,296,7.0,7.0,58,0.00,,,0.00,Wunderground v.1.15,2013-01-24 18:20:00,
2013-01-24 13:25:00,25.1,12.4,30.34,NW,305,7.0,12.0,58,0.00,,,0.00,Wunderground v.1.15,2013-01-24 18:25:00,
2013-01-24 13:30:00,25.4,11.9,30.34,NNW,342,8.0,8.0,56,0.00,,,0.00,Wunderground v.1.15,2013-01-24 18:30:00,
2013-01-24 13:35:00,25.7,12.9,30.34,NNW,331,7.0,8.0,58,0.00,,,0.00,Wunderground v.1.15,2013-01-24 18:35:00,
2013-01-24 13:40:00,25.7,12.6,30.34,NW,318,7.0,9.0,57,0.00,,,0.00,Wunderground v.1.15,2013-01-24 18:40:00,
2013-01-24 13:45:00,25.6,11.7,30.34,NNW,334,8.0,9.0,55,0.00,,,0.00,Wunderground v.1.15,2013-01-24 18:45:00,
2013-01-24 13:55:00,25.6,10.8,30.35,NW,318,8.0,13.0,53,0.00,,,0.00,Wunderground v.1.15,2013-01-24 18:55:00,
2013-01-24 14:00:00,25.8,10.1,30.35,NNW,341,8.0,17.0,51,0.00,,,0.00,Wunderground v.1.15,2013-01-24 19:00:00,
2013-01-24 14:05:00,25.4,9.3,30.34,NNW,343,8.0,17.0,50,0.00,,,0.00,Wunderground v.1.15,2013-01-24 19:05:00,
2013-01-24 14:10:00,25.7,10.5,30.35,NNE,16,8.0,8.0,52,0.00,,,0.00,Wunderground v.1.15,2013-01-24 19:10:00,
2013-01-24 14:15:00,26.1,10.4,30.35,WNW,303,8.0,8.0,51,0.00,,,0.00,Wunderground v.1.15,2013-01-24 19:15:00,
2013-01-24 14:25:00,26.4,10.3,30.35,West,276,6.0,7.0,50,0.00,,,0.00,Wunderground v.1.15,2013-01-24 19:25:00,
2013-01-24 14:30:00,26.5,9.9,30.35,North,5,7.0,8.0,49,0.00,,,0.00,Wunderground v.1.15,2013-01-24 19:30:00,
2013-01-24 14:35:00,27.0,11.3,30.35,NNW,330,7.0,8.0,51,0.00,,,0.00,Wunderground v.1.15,2013-01-24 19:35:00,
2013-01-24 14:40:00,27.2,10.5,30.35,North,349,5.0,11.0,49,0.00,,,0.00,Wunderground v.1.15,2013-01-24 19:40:00,
2013-01-24 14:45:00,27.0,9.4,30.36,NW,323,6.0,11.0,47,0.00,,,0.00,Wunderground v.1.15,2013-01-24 19:45:00,
2013-01-24 14:50:00,26.9,8.4,30.36,North,359,7.0,7.0,45,0.00,,,0.00,Wunderground v.1.15,2013-01-24 19:50:00,
2013-01-24 14:55:00,26.8,7.8,30.37,NNW,332,6.0,13.0,44,0.00,,,0.00,Wunderground v.1.15,2013-01-24 19:55:00,
2013-01-24 15:05:00,26.9,6.8,30.37,NNW,346,6.0,7.0,42,0.00,,,0.00,Wunderground v.1.15,2013-01-24 20:05:00,
2013-01-24 15:10:00,27.2,7.6,30.37,NNW,346,6.0,8.0,43,0.00,,,0.00,Wunderground v.1.15,2013-01-24 20:10:00,
2013-01-24 15:15:00,27.5,8.4,30.37,NNW,346,5.0,8.0,44,0.00,,,0.00,Wunderground v.1.15,2013-01-24 20:15:00,
2013-01-24 15:20:00,26.9,5.8,30.38,NNW,346,7.0,9.0,40,0.00,,,0.00,Wunderground v.1.15,2013-01-24 20:20:00,
2013-01-24 15:25:00,26.9,6.8,30.38,NW,311,8.0,9.0,42,0.00,,,0.00,Wunderground v.1.15,2013-01-24 20:25:00,
2013-01-24 15:30:00,26.8,5.7,30.38,North,11,7.0,7.0,40,0.00,,,0.00,Wunderground v.1.15,2013-01-24 20:30:00,
2013-01-24 15:40:00,26.8,6.2,30.39,NW,319,7.0,8.0,41,0.00,,,0.00,Wunderground v.1.15,2013-01-24 20:40:00,
2013-01-24 15:45:00,26.7,6.1,30.39,NNW,336,8.0,8.0,41,0.00,,,0.00,Wunderground v.1.15,2013-01-24 20:45:00,
2013-01-24 15:50:00,26.7,5.6,30.39,North,357,9.0,9.0,40,0.00,,,0.00,Wunderground v.1.15,2013-01-24 20:50:00,
2013-01-24 15:55:00,26.7,5.6,30.40,NW,317,8.0,9.0,40,0.00,,,0.00,Wunderground v.1.15,2013-01-24 20:55:00,
2013-01-24 16:00:00,26.7,5.6,30.40,NNW,333,8.0,8.0,40,0.00,,,0.00,Wunderground v.1.15,2013-01-24 21:00:00,
2013-01-24 16:05:00,26.8,6.7,30.40,NNE,18,7.0,8.0,42,0.00,,,0.00,Wunderground v.1.15,2013-01-24 21:05:00,
2013-01-24 16:15:00,26.6,6.6,30.40,NNW,340,7.0,7.0,42,0.00,,,0.00,Wunderground v.1.15,2013-01-24 21:15:00,
2013-01-24 16:20:00,26.5,5.9,30.41,WNW,286,7.0,7.0,41,0.00,,,0.00,Wunderground v.1.15,2013-01-24 21:20:00,
2013-01-24 16:25:00,26.5,6.5,30.41,NNW,344,6.0,7.0,42,0.00,,,0.00,Wunderground v.1.15,2013-01-24 21:25:00,
2013-01-24 16:30:00,26.5,5.9,30.41,NW,326,6.0,9.0,41,0.00,,,0.00,Wunderground v.1.15,2013-01-24 21:30:00,
2013-01-24 16:35:00,26.3,5.8,30.42,NW,326,6.0,9.0,41,0.00,,,0.00,Wunderground v.1.15,2013-01-24 21:35:00,
2013-01-24 16:40:00,26.2,5.1,30.42,NNW,346,7.0,7.0,40,0.00,,,0.00,Wunderground v.1.15,2013-01-24 21:40:00,
2013-01-24 16:50:00,25.9,5.9,30.42,North,349,5.0,8.0,42,0.00,,,0.00,Wunderground v.1.15,2013-01-24 21:50:00,
2013-01-24 16:55:00,25.8,5.8,30.42,West,271,6.0,8.0,42,0.00,,,0.00,Wunderground v.1.15,2013-01-24 21:55:00,
2013-01-24 17:00:00,25.7,5.7,30.42,West,274,6.0,6.0,42,0.00,,,0.00,Wunderground v.1.15,2013-01-24 22:00:00,
2013-01-24 17:05:00,25.6,5.6,30.42,West,265,5.0,6.0,42,0.00,,,0.00,Wunderground v.1.15,2013-01-24 22:05:00,
2013-01-24 17:10:00,25.5,6.1,30.43,WNW,292,5.0,7.0,43,0.00,,,0.00,Wunderground v.1.15,2013-01-24 22:10:00,
2013-01-24 17:15:00,25.4,6.5,30.43,NNW,335,4.0,7.0,44,0.00,,,0.00,Wunderground v.1.15,2013-01-24 22:15:00,
2013-01-24 17:25:00,25.2,5.8,30.43,NW,317,4.0,5.0,43,0.00,,,0.00,Wunderground v.1.15,2013-01-24 22:25:00,
2013-01-24 17:30:00,25.0,5.6,30.44,WNW,286,3.0,3.0,43,0.00,,,0.00,Wunderground v.1.15,2013-01-24 22:30:00,
2013-01-24 17:35:00,24.9,5.5,30.44,NW,320,3.0,4.0,43,0.00,,,0.00,Wunderground v.1.15,2013-01-24 22:35:00,
2013-01-24 17:40:00,24.9,5.0,30.44,NW,311,3.0,3.0,42,0.00,,,0.00,Wunderground v.1.15,2013-01-24 22:40:00,
2013-01-24 17:50:00,24.9,5.5,30.44,North,349,3.0,7.0,43,0.00,,,0.00,Wunderground v.1.15,2013-01-24 22:50:00,
2013-01-24 17:55:00,24.9,5.5,30.44,NW,307,4.0,7.0,43,0.00,,,0.00,Wunderground v.1.15,2013-01-24 22:55:00,
2013-01-24 18:00:00,24.8,5.9,30.45,WNW,302,4.0,4.0,44,0.00,,,0.00,Wunderground v.1.15,2013-01-24 23:00:00,
2013-01-24 18:05:00,24.7,5.8,30.45,NW,310,3.0,4.0,44,0.00,,,0.00,Wunderground v.1.15,2013-01-24 23:05:00,
2013-01-24 18:10:00,24.6,5.8,30.45,NW,321,3.0,3.0,44,0.00,,,0.00,Wunderground v.1.15,2013-01-24 23:10:00,
2013-01-24 18:15:00,24.5,5.7,30.46,NW,310,2.0,8.0,44,0.00,,,0.00,Wunderground v.1.15,2013-01-24 23:15:00,
2013-01-24 18:25:00,24.5,6.2,30.46,WNW,290,3.0,3.0,45,0.00,,,0.00,Wunderground v.1.15,2013-01-24 23:25:00,
2013-01-24 18:30:00,24.3,6.9,30.47,NW,307,2.0,2.0,47,0.00,,,0.00,Wunderground v.1.15,2013-01-24 23:30:00,
2013-01-24 18:35:00,24.3,6.9,30.47,WNW,301,2.0,2.0,47,0.00,,,0.00,Wunderground v.1.15,2013-01-24 23:35:00,
2013-01-24 18:40:00,24.2,6.8,30.47,NW,307,1.0,1.0,47,0.00,,,0.00,Wunderground v.1.15,2013-01-24 23:40:00,
2013-01-24 18:45:00,23.9,6.6,30.47,NW,320,1.0,5.0,47,0.00,,,0.00,Wunderground v.1.15,2013-01-24 23:45:00,
2013-01-24 18:50:00,23.9,7.0,30.47,NW,310,1.0,4.0,48,0.00,,,0.00,Wunderground v.1.15,2013-01-24 23:50:00,
2013-01-24 18:55:00,24.0,7.1,30.47,North,11,2.0,4.0,48,0.00,,,0.00,Wunderground v.1.15,2013-01-24 23:55:00,
2013-01-24 19:05:00,24.0,6.2,30.47,West,265,3.0,4.0,46,0.00,,,0.00,Wunderground v.1.15,2013-01-25 00:05:00,
2013-01-24 19:10:00,23.9,6.6,30.47,NW,308,2.0,4.0,47,0.00,,,0.00,Wunderground v.1.15,2013-01-25 00:10:00,
2013-01-24 19:15:00,23.9,6.6,30.47,WNW,288,3.0,4.0,47,0.00,,,0.00,Wunderground v.1.15,2013-01-25 00:15:00,
2013-01-24 19:20:00,23.8,6.5,30.48,North,349,3.0,4.0,47,0.00,,,0.00,Wunderground v.1.15,2013-01-25 00:20:00,
2013-01-24 19:25:00,23.8,6.9,30.48,WNW,302,2.0,4.0,48,0.00,,,0.00,Wunderground v.1.15,2013-01-25 00:25:00,
2013-01-24 19:35:00,23.7,7.3,30.49,NW,309,2.0,2.0,49,0.00,,,0.00,Wunderground v.1.15,2013-01-25 00:35:00,
2013-01-24 19:40:00,23.9,7.5,30.49,NNW,328,3.0,3.0,49,0.00,,,0.00,Wunderground v.1.15,2013-01-25 00:40:00,
2013-01-24 19:45:00,23.8,7.4,30.49,West,278,3.0,3.0,49,0.00,,,0.00,Wunderground v.1.15,2013-01-25 00:45:00,
2013-01-24 19:50:00,23.8,7.4,30.49,NNW,344,3.0,3.0,49,0.00,,,0.00,Wunderground v.1.15,2013-01-25 00:50:00,
2013-01-24 19:55:00,23.7,6.8,30.49,North,354,3.0,3.0,48,0.00,,,0.00,Wunderground v.1.15,2013-01-25 00:55:00,
2013-01-24 20:00:00,23.5,7.1,30.49,NNW,331,3.0,5.0,49,0.00,,,0.00,Wunderground v.1.15,2013-01-25 01:00:00,
2013-01-24 20:05:00,23.5,7.1,30.49,NW,313,3.0,5.0,49,0.00,,,0.00,Wunderground v.1.15,2013-01-25 01:05:00,
2013-01-24 20:15:00,23.4,7.0,30.49,NNW,333,3.0,3.0,49,0.00,,,0.00,Wunderground v.1.15,2013-01-25 01:15:00,
2013-01-24 20:20:00,23.3,6.9,30.49,NNW,339,2.0,2.0,49,0.00,,,0.00,Wunderground v.1.15,2013-01-25 01:20:00,
2013-01-24 20:25:00,23.1,7.2,30.49,West,269,2.0,3.0,50,0.00,,,0.00,Wunderground v.1.15,2013-01-25 01:25:00,
2013-01-24 20:30:00,23.0,7.1,30.49,NW,311,2.0,2.0,50,0.00,,,0.00,Wunderground v.1.15,2013-01-25 01:30:00,
2013-01-24 20:35:00,22.9,6.6,30.49,NNW,327,2.0,2.0,49,0.00,,,0.00,Wunderground v.1.15,2013-01-25 01:35:00,
2013-01-24 20:45:00,22.6,6.7,30.49,NW,308,1.0,2.0,50,0.00,,,0.00,Wunderground v.1.15,2013-01-25 01:45:00,
2013-01-24 20:50:00,22.5,7.1,30.50,NW,326,1.0,1.0,51,0.00,,,0.00,Wunderground v.1.15,2013-01-25 01:50:00,
2013-01-24 20:55:00,22.6,7.2,30.49,WNW,301,1.0,2.0,51,0.00,,,0.00,Wunderground v.1.15,2013-01-25 01:55:00,
2013-01-24 21:00:00,22.5,6.6,30.50,NNW,335,2.0,2.0,50,0.00,,,0.00,Wunderground v.1.15,2013-01-25 02:00:00,
2013-01-24 21:05:00,22.4,7.0,30.49,NNW,335,2.0,2.0,51,0.00,,,0.00,Wunderground v.1.15,2013-01-25 02:05:00,
2013-01-24 21:10:00,22.2,6.8,30.49,NNW,335,1.0,4.0,51,0.00,,,0.00,Wunderground v.1.15,2013-01-25 02:10:00,
2013-01-24 21:15:00,22.4,7.0,30.50,WNW,301,1.0,4.0,51,0.00,,,0.00,Wunderground v.1.15,2013-01-25 02:15:00,
2013-01-24 21:25:00,22.0,7.0,30.50,WNW,301,1.0,2.0,52,0.00,,,0.00,Wunderground v.1.15,2013-01-25 02:25:00,
2013-01-24 21:30:00,22.0,7.0,30.49,NNW,330,1.0,1.0,52,0.00,,,0.00,Wunderground v.1.15,2013-01-25 02:30:00,
2013-01-24 21:35:00,22.0,7.5,30.49,NW,308,1.0,2.0,53,0.00,,,0.00,Wunderground v.1.15,2013-01-25 02:35:00,
2013-01-24 21:40:00,22.2,7.6,30.50,WNW,303,1.0,1.0,53,0.00,,,0.00,Wunderground v.1.15,2013-01-25 02:40:00,
2013-01-24 21:45:00,22.3,7.3,30.49,WNW,297,1.0,1.0,52,0.00,,,0.00,Wunderground v.1.15,2013-01-25 02:45:00,
2013-01-24 21:50:00,22.0,7.9,30.49,NW,304,1.0,1.0,54,0.00,,,0.00,Wunderground v.1.15,2013-01-25 02:50:00,
2013-01-24 22:00:00,21.9,7.8,30.50,NW,311,1.0,1.0,54,0.00,,,0.00,Wunderground v.1.15,2013-01-25 03:00:00,
2013-01-24 22:05:00,22.0,7.5,30.50,NW,313,1.0,1.0,53,0.00,,,0.00,Wunderground v.1.15,2013-01-25 03:05:00,
2013-01-24 22:10:00,21.8,7.7,30.49,NNW,330,1.0,4.0,54,0.00,,,0.00,Wunderground v.1.15,2013-01-25 03:10:00,
2013-01-24 22:15:00,21.8,8.1,30.49,NW,318,2.0,4.0,55,0.00,,,0.00,Wunderground v.1.15,2013-01-25 03:15:00,
2013-01-24 22:20:00,21.8,7.7,30.49,NW,317,2.0,2.0,54,0.00,,,0.00,Wunderground v.1.15,2013-01-25 03:20:00,
2013-01-24 22:25:00,21.8,8.1,30.49,WNW,287,1.0,2.0,55,0.00,,,0.00,Wunderground v.1.15,2013-01-25 03:25:00,
2013-01-24 22:30:00,21.9,8.2,30.50,WNW,288,2.0,2.0,55,0.00,,,0.00,Wunderground v.1.15,2013-01-25 03:30:00,
2013-01-24 22:40:00,21.6,8.3,30.50,WNW,296,1.0,2.0,56,0.00,,,0.00,Wunderground v.1.15,2013-01-25 03:40:00,
2013-01-24 22:45:00,21.6,7.9,30.50,West,274,1.0,4.0,55,0.00,,,0.00,Wunderground v.1.15,2013-01-25 03:45:00,
2013-01-24 22:50:00,21.6,7.9,30.50,WNW,285,2.0,2.0,55,0.00,,,0.00,Wunderground v.1.15,2013-01-25 03:50:00,
2013-01-24 22:55:00,21.5,8.2,30.50,NW,307,2.0,2.0,56,0.00,,,0.00,Wunderground v.1.15,2013-01-25 03:55:00,
2013-01-24 23:00:00,21.3,8.0,30.50,WNW,295,1.0,1.0,56,0.00,,,0.00,Wunderground v.1.15,2013-01-25 04:00:00,
2013-01-24 23:05:00,21.4,8.1,30.50,West,259,2.0,4.0,56,0.00,,,0.00,Wunderground v.1.15,2013-01-25 04:05:00,
2013-01-24 23:15:00,21.5,7.4,30.50,NW,320,2.0,4.0,54,0.00,,,0.00,Wunderground v.1.15,2013-01-25 04:15:00,
2013-01-24 23:20:00,21.5,7.4,30.50,WNW,300,2.0,2.0,54,0.00,,,0.00,Wunderground v.1.15,2013-01-25 04:20:00,
2013-01-24 23:25:00,21.5,7.4,30.50,NNW,330,2.0,2.0,54,0.00,,,0.00,Wunderground v.1.15,2013-01-25 04:25:00,
2013-01-24 23:30:00,21.4,6.9,30.50,NW,305,2.0,2.0,53,0.00,,,0.00,Wunderground v.1.15,2013-01-25 04:30:00,
2013-01-24 23:35:00,21.4,7.3,30.50,NW,313,2.0,2.0,54,0.00,,,0.00,Wunderground v.1.15,2013-01-25 04:35:00,
2013-01-24 23:40:00,21.3,7.2,30.50,NNW,334,2.0,4.0,54,0.00,,,0.00,Wunderground v.1.15,2013-01-25 04:40:00,
2013-01-24 23:45:00,21.3,7.2,30.50,NW,326,2.0,4.0,54,0.00,,,0.00,Wunderground v.1.15,2013-01-25 04:45:00,
2013-01-24 23:55:00,21.5,6.6,30.50,NNW,329,3.0,3.0,52,0.00,,,0.00,Wunderground v.1.15,2013-01-25 04:55:00,